EB5EEV-10 Weather Reports


time (UTC)temp
C
wind
direction
speed
KPH
gust
KPH
rain 1hr
cm
rain 24hr
cm
rain mn
cm
humidity
%
barometer
mb
20230208165913 10 0 1.6 8.0 0.05 0.00 0.00 8 1023.3
20230208164121 10 90 4.8 11.3 0.13 0.00 0.00 8 1023.1
20230208162449 10 45 4.8 12.9 0.23 0.00 0.00 8 1023.0
20230208160706 10 0 3.2 9.7 0.30 0.00 0.00 9 1022.9
20230208154754 10 90 3.2 6.4 0.36 0.00 0.00 9 1022.8
20230208152946 10 90 4.8 9.7 0.30 0.00 0.00 9 1023.0
20230208151046 10 135 0.0 9.7 0.18 0.00 0.00 8 1023.2
20230208145308 11 180 0.0 4.8 0.05 0.00 0.00 8 1023.2
20230208143404 11 0 3.2 9.7 0.03 0.00 0.00 8 1023.2
20230208141517 11 180 4.8 9.7 0.03 0.00 0.00 8 1022.9
20230208135614 11 0 0.0 1.6 0.05 0.00 0.00 8 1022.8
20230208133818 11 270 3.2 8.0 0.08 0.00 0.00 8 1022.6
20230208131935 10 90 4.8 11.3 0.08 0.00 0.00 9 1022.9
20230208130231 11 180 1.6 4.8 0.05 0.00 0.00 9 1023.0
20230208124325 11 0 4.8 9.7 0.03 0.00 0.00 9 1022.9
20230208122550 11 90 6.4 9.7 0.00 0.00 0.00 9 1022.9
20230208115106 10 0 0.0 3.2 0.23 0.00 0.00 9 1022.9
20230208113401 10 0 0.0 4.8 0.23 0.00 0.00 9 1023.2
20230208111701 10 45 4.8 9.7 0.23 0.00 0.00 9 1023.1
20230208105926 10 0 0.0 4.8 0.05 0.00 0.00 9 1022.9
20230208102322 9 90 0.0 1.6 0.05 0.00 0.00 9 1023.0
20230208100456 8 0 0.0 0.0 0.13 0.00 0.00 9 1022.7
20230208094524 9 0 0.0 1.6 0.25 0.00 0.00 9 1022.3
20230208092536 9 315 6.4 9.7 0.28 0.00 0.00 9 1022.2
20230208090701 9 270 4.8 8.0 0.30 0.00 0.00 9 1022.2
20230208084846 8 270 9.7 12.9 0.36 0.00 0.00 9 1022.2
20230208083122 8 270 6.4 11.3 0.43 0.00 0.00 9 1022.2
20230208081353 8 270 4.8 9.7 0.84 0.00 0.00 9 1022.5
20230208075541 8 0 0.0 1.6 0.69 0.00 0.00 9 1022.2
20230208073743 9 270 3.2 6.4 0.71 0.00 0.00 9 1021.9
20230208071916 9 270 4.8 9.7 0.41 0.00 0.00 9 1021.7
20230208070201 9 270 1.6 4.8 0.36 0.00 0.00 9 1021.5
20230208064456 8 270 4.8 9.7 0.30 0.00 0.00 8 1021.6
20230208062731 8 0 0.0 0.0 0.18 0.00 0.00 8 1021.4
20230208060847 8 0 0.0 0.0 0.13 0.00 0.00 8 1021.2
20230208054951 8 315 0.0 1.6 0.00 0.00 0.00 8 1021.0
20230208053131 8 0 0.0 0.0 0.00 0.00 0.00 8 1020.9
20230208051401 8 0 0.0 0.0 0.00 0.00 0.00 8 1021.1
20230208045511 8 0 0.0 0.0 0.00 0.00 0.00 8 1020.8
20230208043631 8 0 0.0 0.0 0.00 0.00 0.00 8 1021.0
20230208041931 8 0 0.0 1.6 0.00 0.00 0.00 8 1020.7
20230208040246 8 0 0.0 0.0 0.00 0.00 0.00 8 1020.6
20230208034556 8 0 0.0 0.0 0.00 0.00 0.00 8 1020.9
20230208032812 8 0 0.0 0.0 0.00 0.00 0.00 8 1020.8
20230208030921 8 270 3.2 4.8 0.00 0.00 0.00 8 1020.8
20230208025036 9 270 4.8 4.8 0.00 0.00 0.00 7 1020.9
20230208023414 9 0 0.0 0.0 0.00 0.00 0.00 7 1020.7
20230208021641 9 0 0.0 0.0 0.00 0.00 0.00 7 1020.6
20230208015952 9 0 0.0 0.0 0.00 0.00 0.00 7 1020.6
20230208012426 9 270 8.0 11.3 0.00 0.00 0.00 7 1020.6
20230208010641 10 270 3.2 6.4 0.00 0.00 0.00 7 1020.5
20230207224031 10 0 3.2 4.8 0.00 0.00 0.00 7 1020.4
20230207222139 10 315 4.8 9.7 0.00 0.00 0.00 7 1020.4
20230207220426 10 315 0.0 3.2 0.00 0.00 0.00 7 1020.5
20230207214711 10 270 0.0 4.8 0.00 0.00 0.00 7 1020.3
20230207212952 10 0 0.0 3.2 0.00 0.00 0.00 7 1020.3
20230207211330 10 0 1.6 4.8 0.00 0.00 0.00 7 1020.3
20230207205511 10 45 4.8 12.9 0.00 0.00 0.00 7 1020.1
20230207203622 10 90 1.6 4.8 0.00 0.00 0.00 7 1019.9
20230207201721 10 270 4.8 9.7 0.00 0.00 0.00 7 1019.8
20230207200021 10 135 4.8 11.3 0.00 0.00 0.00 7 1019.8
20230207194251 10 0 3.2 11.3 0.00 0.00 0.00 7 1019.9
20230207192341 10 180 3.2 6.4 0.00 0.00 0.00 7 1020.0
20230207190511 10 45 4.8 8.0 0.00 0.00 0.00 7 1019.8
20230207184751 10 315 3.2 6.4 0.00 0.00 0.00 7 1019.6
20230207182758 10 0 4.8 8.0 0.00 0.00 0.00 6 1019.6
20230207180915 10 0 3.2 8.0 0.00 0.00 0.00 6 1019.5
20230207175159 10 45 6.4 9.7 0.00 0.00 0.00 6 1019.3
20230207173319 10 0 0.0 3.2 0.00 0.00 0.00 6 1019.0
20230207171406 10 0 3.2 4.8 0.00 0.00 0.00 7 1019.2